Regional Weather Roundup
Issued by NWS Midland/Odessa, TX

Skip options and go directly to product.
Home | Oldest Version | Previous Version | Current Version | All | Text Only | Save Text | Print | Product List | Glossary On

Skip product version selection by date and time.   
855
ASUS44 KMAF 251710
RWRMAF
MIDLAND AREA WEATHER ROUNDUP
NATIONAL WEATHER SERVICE MIDLAND TX
1200 PM CDT MON JUL 25 2016

...IN SOUTHWEST TEXAS AND SOUTHEAST NEW MEXICO...

CITY           SKY/WX    TMP DP  RH WIND       PRES   REMARKS
ALPINE         SUNNY     88  55  32 CALM      30.22S
ANDREWS        FAIR      91  61  36 MISG      30.11F
ARTESIA        SUNNY     91  57  31 VRB3      30.13S
BIG SPRING     SUNNY     93  67  42 CALM      30.09F
CARLSBAD       SUNNY     92  56  29 VRB5      30.09F
DRYDEN           N/A     92  68  45 NE6G18    30.01F
FORT STOCKTON  SUNNY     93  60  33 SE13      30.07S
GUAD PASS      MOSUNNY   85  53  33 E16G24    30.27R
HOBBS          MOSUNNY   90  57  33 VRB6      30.15S
MARFA          PTSUNNY   85  58  39 NW8       30.20S
MIDLAND AIRPK  SUNNY     93  60  32 E5        30.09S
MIDLAND INTL   SUNNY     92  62  36 VRB3      30.08S
ODESSA         SUNNY     93  61  34 MISG      30.09F
PECOS          SUNNY     94  60  31 E5        30.05S
PRESIDIO       FAIR      94  60  32 NE6G16    30.02F
SEMINOLE       SUNNY     91  58  32 N5        30.13S
SNYDER           N/A     91  67  45 SW5       30.08R
WINK           SUNNY     93  62  35 SE8       30.06S
$$
...OTHER STATIONS IN TEXAS...

CITY           SKY/WX    TMP DP  RH WIND       PRES   REMARKS
ABILENE        SUNNY     93  67  42 SE7       30.03F
AMARILLO       SUNNY     88  61  40 CALM      30.15S
AUSTIN         MOSUNNY   92  72  51 VRB3      29.96F
BROWNSVILLE    MOSUNNY   94  73  50 S15G21    29.93S HX 103
CORPUS CHRISTI PTSUNNY   91  73  55 CALM      29.92F
DALLAS FTW     CLOUDY    89  72  56 SE5       29.97F
DEL RIO        SUNNY     92  71  50 SE9       29.94F
EL PASO        MOSUNNY   92  55  28 SW5       30.11F
HOUSTON INT    PTSUNNY   94  72  48 NW5       29.94F HX 102
LUBBOCK        MOSUNNY   93  60  33 W8        30.12S
SAN ANGELO     SUNNY     94  66  39 MISG      30.02F
SAN ANTONIO    MOSUNNY   89  71  55 SE7       29.98F
WACO           SUNNY     96  68  39 VRB6      29.96F HX 101
WICHITA FALLS  NOT AVBL
$$
...OTHER LOCATIONS IN NEW MEXICO...

CITY           SKY/WX    TMP DP  RH WIND       PRES   REMARKS
ALAMAGORDO     SUNNY     90  54  29 SE3       30.16S
ALBUQUERQUE    MOSUNNY   86  52  30 N8        30.26F
CANNON AFB     SUNNY     87  58  36 NW3       30.18F
CLOVIS         SUNNY     88  59  37 W3        30.19S
HOLLOMAN AFB   SUNNY     91  53  27 W7        30.14S
ROSWELL        SUNNY     93  55  27 N3        30.13F
RUIDOSO          N/A     79  48  34 E10       30.39S
SANTA FE       SUNNY     81  49  32 S9        30.33F
TRUTH OR CONSE SUNNY     89  52  28 E8        30.20F
TUCUMCARI      SUNNY     87  58  37 VRB7      30.18S
$$

USA.gov is the U.S. government's official web portal to all federal, state and local government web resources and services.